Total_Precipitation_Accumulation
0.11 0.11 0.12 0.12 0.12 0.14 0.14 0.16 0.17 0.16 0.16 0.16 0.17 0.18 0.21 0.23 0.21 0.17 0.14 0.13 0.09 0.09 0.15 0.31 0.56 0.82 1.03 1.13 1.14 1.00 0.93 0.80 0.64 0.55 0.53 0.60 0.63 0.62 0.66 0.76 0.73 0.62 0.59
0.04 0.03 0.03 0.03 0.02 0.02 0.02 0.03 0.04 0.05 0.06 0.08 0.09 0.11 0.13 0.16 0.18 0.19 0.19 0.21 0.16 0.13 0.14 0.21 0.35 0.58 0.88 1.11 1.22 1.19 1.06 0.98 0.81 0.64 0.56 0.56 0.62 0.62 0.63 0.69 0.77 0.73 0.63
0.02 0.02 0.02 0.01 0.01 0.00 0.00 0.00 0.01 0.01 0.01 0.02 0.03 0.05 0.07 0.08 0.12 0.15 0.18 0.22 0.23 0.20 0.17 0.21 0.27 0.43 0.72 1.02 1.21 1.35 1.26 1.12 1.01 0.87 0.68 0.57 0.59 0.64 0.63 0.66 0.73 0.80 0.77
0.01 0.01 0.01 0.01 0.01 0.01 0.01 0.01 0.01 0.01 0.01 0.02 0.02 0.03 0.06 0.07 0.06 0.09 0.14 0.16 0.19 0.21 0.20 0.20 0.28 0.42 0.60 0.86 1.13 1.39 1.50 1.35 1.25 1.19 1.01 0.78 0.63 0.64 0.66 0.66 0.71 0.80 0.88
0.01 0.01 0.02 0.01 0.01 0.02 0.02 0.03 0.03 0.02 0.02 0.02 0.02 0.02 0.02 0.04 0.05 0.08 0.11 0.14 0.17 0.18 0.20 0.21 0.25 0.34 0.48 0.70 1.04 1.39 1.73 1.77 1.59 1.47 1.31 1.12 0.89 0.72 0.71 0.69 0.72 0.81 0.90
0.01 0.01 0.02 0.01 0.01 0.01 0.02 0.02 0.02 0.02 0.02 0.02 0.02 0.01 0.00 0.01 0.02 0.05 0.07 0.12 0.16 0.17 0.19 0.24 0.27 0.25 0.27 0.39 0.63 1.01 1.39 1.73 1.81 1.72 1.62 1.43 1.22 1.00 0.85 0.79 0.77 0.85 0.96
0.01 0.01 0.01 0.01 0.01 0.01 0.02 0.02 0.02 0.03 0.02 0.02 0.02 0.01 0.00 0.00 0.01 0.02 0.07 0.12 0.17 0.23 0.29 0.34 0.40 0.38 0.30 0.29 0.32 0.46 0.80 1.30 1.66 1.83 1.83 1.78 1.56 1.30 1.09 0.94 0.90 0.94 1.01
0.01 0.01 0.01 0.01 0.01 0.01 0.01 0.01 0.02 0.05 0.04 0.03 0.07 0.11 0.05 0.01 0.00 0.01 0.04 0.09 0.17 0.27 0.39 0.44 0.49 0.50 0.46 0.36 0.25 0.25 0.37 0.73 1.28 1.75 1.90 1.92 1.96 1.76 1.41 1.17 1.05 1.06 1.13
0.01 0.00 0.01 0.01 0.01 0.01 0.01 0.01 0.02 0.04 0.06 0.04 0.07 0.24 0.32 0.16 0.05 0.00 0.01 0.04 0.08 0.12 0.20 0.29 0.36 0.41 0.47 0.48 0.39 0.30 0.28 0.43 0.79 1.40 1.91 2.02 2.06 2.15 1.93 1.51 1.25 1.17 1.21
0.01 0.01 0.01 0.01 0.01 0.01 0.02 0.02 0.03 0.05 0.11 0.12 0.08 0.12 0.22 0.27 0.29 0.13 0.01 0.02 0.02 0.04 0.06 0.10 0.16 0.23 0.34 0.44 0.48 0.43 0.36 0.37 0.57 0.94 1.58 2.12 2.18 2.27 2.38 2.04 1.61 1.36 1.28
0.01 0.01 0.01 0.01 0.01 0.01 0.02 0.03 0.04 0.06 0.12 0.17 0.17 0.15 0.14 0.13 0.19 0.28 0.12 0.02 0.03 0.03 0.03 0.05 0.07 0.10 0.16 0.27 0.36 0.43 0.45 0.40 0.50 0.71 1.07 1.72 2.31 2.48 2.59 2.47 2.02 1.60 1.37
0.01 0.01 0.01 0.01 0.01 0.02 0.03 0.05 0.07 0.09 0.11 0.15 0.18 0.20 0.24 0.26 0.20 0.26 0.22 0.07 0.03 0.03 0.04 0.05 0.06 0.07 0.10 0.16 0.23 0.35 0.43 0.44 0.45 0.56 0.69 1.07 1.82 2.48 2.70 2.61 2.30 1.92 1.56
0.02 0.01 0.01 0.02 0.02 0.03 0.05 0.07 0.10 0.12 0.13 0.17 0.20 0.21 0.22 0.22 0.21 0.26 0.30 0.18 0.08 0.03 0.03 0.05 0.06 0.09 0.11 0.14 0.18 0.25 0.32 0.39 0.45 0.50 0.51 0.58 0.96 1.79 2.57 2.81 2.57 2.21 1.90
0.02 0.01 0.01 0.02 0.03 0.05 0.08 0.11 0.14 0.14 0.16 0.19 0.20 0.22 0.23 0.19 0.22 0.27 0.33 0.38 0.29 0.09 0.04 0.04 0.05 0.08 0.11 0.13 0.15 0.19 0.20 0.27 0.36 0.42 0.45 0.47 0.54 0.90 1.69 2.61 3.14 2.83 2.32
0.02 0.01 0.02 0.04 0.05 0.08 0.11 0.14 0.17 0.18 0.22 0.23 0.25 0.25 0.27 0.25 0.25 0.26 0.29 0.40 0.56 0.40 0.11 0.04 0.05 0.07 0.09 0.13 0.17 0.18 0.17 0.20 0.27 0.35 0.39 0.42 0.47 0.58 0.90 1.57 2.54 3.22 3.10
0.02 0.02 0.04 0.07 0.11 0.15 0.18 0.19 0.21 0.21 0.26 0.27 0.29 0.31 0.32 0.32 0.32 0.32 0.34 0.35 0.43 0.52 0.32 0.06 0.06 0.08 0.10 0.13 0.17 0.19 0.19 0.21 0.24 0.29 0.34 0.37 0.42 0.52 0.67 0.98 1.58 2.50 3.10
0.04 0.05 0.07 0.10 0.15 0.21 0.25 0.29 0.30 0.31 0.32 0.30 0.31 0.35 0.37 0.36 0.37 0.35 0.36 0.37 0.36 0.43 0.43 0.12 0.05 0.08 0.14 0.17 0.18 0.19 0.20 0.19 0.17 0.21 0.28 0.35 0.41 0.49 0.61 0.80 1.07 1.67 2.54
0.08 0.09 0.13 0.17 0.21 0.25 0.29 0.38 0.44 0.46 0.49 0.48 0.46 0.46 0.46 0.47 0.49 0.48 0.48 0.44 0.40 0.38 0.44 0.30 0.10 0.08 0.15 0.22 0.28 0.27 0.23 0.20 0.17 0.18 0.23 0.30 0.38 0.44 0.56 0.70 0.88 1.17 1.76
0.13 0.17 0.23 0.31 0.35 0.37 0.39 0.40 0.52 0.65 0.72 0.75 0.74 0.74 0.71 0.68 0.70 0.68 0.66 0.59 0.48 0.39 0.39 0.38 0.21 0.12 0.16 0.25 0.35 0.36 0.32 0.24 0.19 0.20 0.23 0.27 0.33 0.39 0.47 0.58 0.72 0.89 1.16
0.25 0.31 0.38 0.47 0.54 0.62 0.75 0.75 0.74 0.69 0.71 0.80 0.85 0.88 0.94 0.97 0.97 0.93 0.91 0.76 0.61 0.52 0.46 0.46 0.36 0.24 0.21 0.28 0.46 0.51 0.46 0.36 0.27 0.22 0.25 0.27 0.32 0.37 0.39 0.42 0.47 0.62 0.88
0.32 0.40 0.43 0.44 0.46 0.68 1.13 1.29 1.01 0.65 0.55 0.57 0.60 0.64 0.76 0.93 1.07 1.14 1.18 1.04 0.90 0.84 0.74 0.67 0.56 0.44 0.36 0.41 0.55 0.61 0.65 0.58 0.48 0.37 0.30 0.24 0.25 0.26 0.28 0.32 0.40 0.52 0.70
0.25 0.36 0.42 0.38 0.37 0.57 1.03 1.17 0.79 0.48 0.42 0.41 0.42 0.42 0.47 0.63 0.76 0.88 1.04 1.10 1.16 1.23 1.17 1.01 0.84 0.68 0.51 0.47 0.55 0.73 0.80 0.87 0.79 0.55 0.47 0.39 0.33 0.31 0.27 0.26 0.32 0.42 0.59
0.20 0.24 0.26 0.24 0.27 0.45 0.83 0.91 0.59 0.31 0.25 0.24 0.25 0.27 0.27 0.36 0.51 0.54 0.66 0.80 0.95 1.13 1.26 1.24 1.16 0.89 0.65 0.54 0.65 0.82 0.89 0.95 0.86 0.72 0.74 0.72 0.57 0.46 0.38 0.36 0.40 0.42 0.51
0.18 0.20 0.18 0.14 0.15 0.28 0.65 0.81 0.54 0.25 0.18 0.18 0.20 0.18 0.17 0.22 0.38 0.50 0.61 0.63 0.64 0.80 1.05 1.21 1.30 1.12 0.86 0.76 0.90 1.08 1.19 1.17 1.01 0.94 0.98 1.02 0.78 0.62 0.56 0.52 0.49 0.45 0.46
0.14 0.17 0.16 0.12 0.10 0.15 0.50 0.82 0.64 0.28 0.19 0.17 0.18 0.19 0.19 0.18 0.38 0.54 0.54 0.48 0.44 0.54 0.69 0.94 1.13 1.16 1.10 1.08 1.15 1.36 1.46 1.51 1.40 1.17 1.13 1.18 1.03 0.81 0.75 0.74 0.67 0.55 0.47
0.08 0.10 0.11 0.09 0.08 0.09 0.30 0.74 0.81 0.38 0.24 0.18 0.16 0.17 0.26 0.31 0.42 0.47 0.43 0.45 0.49 0.47 0.46 0.53 0.60 0.69 0.74 0.77 0.97 1.20 1.34 1.47 1.48 1.50 1.30 1.24 1.27 1.19 1.21 0.97 0.78 0.56 0.47